OBJECT N, 61906

Orbit data source: Space-Track

You're viewing an Uncataloged Satellite

Recently launched and/or uncataloged satellites may have evolving metadata. Metadata may include but not limited to: Owner, Maufacturer, Bus, Motor, and Mission.

OBJECT N, 61906 is a satellite owned by Zhongke Xiguang (CN) in SSO that was launched on Mon, 11 Nov 2024 UTC via a LIJIAN-1 launch vehicle from the Jiuquan Satellite Launch Center, China (JSC). Unknown objects in Earth's orbit typically refer to objects detected orbiting the Earth but have not yet been identified or cataloged. These objects could be anything from previously untracked satellites, spent rocket stages, debris from satellite collisions, or even natural meteoroids temporarily captured by Earth's gravity.

Loading next visibility...
OBJECT N details
Identifier
61906, 2024-205N
Orbit
SSO
Last TLE update4 hours ago
Origin
Flag of CNZhongke Xiguang (CN / PRC)
ManufacturerXIOPM/ZXHK
MissionOperational spacecraft
Bus & MotorMN100?, Unknown motor
Mass~75 kg wet, ~75 kg dry
Launch date (UTC)
2024-11-11 (1 week ago)
Launch vehicle
LIJIAN-1
Launch site
Jiuquan Satellite Launch Center, China (JSC)
Object typeUnknown
Shape & HBRUnknown
Radar Cross SectionMedium (>0.1 m² and <1 m²)

Expand to show TLE details & history

TLE from 4 hours ago
0 OBJECT N
1 61906U 24205N   24326.18661008  .00016657  00000-0  89162-3 0  9996
2 61906  97.4750  38.1979 0013550 253.7171 106.2571 15.15029356  1485
Epoch: 2024-11-21T04:28Z
Definitive object data (Epoch: 2024-11-21T04:28:43.11Z)
Latitude-0.00005°
Longitude-89.65368°
Altitude526.6 km
Speed7.598 km/s
True Right ascension02h 32m 47s
True Declination0° 00' 00"
Sunlit
Object was in full shadow at TLE epoch
Visualization TLE readout
Latitude-65.42133°
Longitude73.94427°
Altitude536.498 km
Speed7.598 km/s
Apparent Right ascension16h 14m 29s
Apparent Declination-57° 13' 39"
Sunlit
Object is in daylight
Visualization observer readout
Local Sidereal Time05:46:56
Azimuth146.859° SSE
Elevation-67.129°
Doppler factor1
Orbital elements
Apogee altitude527.209 km
Perigee altitude508.521 km
Semi-major axis6,896.002 km
Eccentricity0.001355
Inclination97.475°
RAAN38.1979°
Arg. of periapsis253.7171°
True anomaly106.40609°
Mean anomaly106.2571°
Eccentric anomaly106.3316°
Mean motion3.79007 °/min
BSTAR0.00089162
Orbital period94.99 mins
Loading maneuver chart data...
Loading historical data...
Loading historical data...
Loading historical data...
Loading historical data...
Loading historical data...
Loading historical data...
Loading historical data...

OBJECT N Visibility forecast

Observer location: undefined°, undefined

Span
Click to sort rows by Start time (UTC) header in descending order
Start Az.
Max El. time (UTC)
Max El. Az.
Max El.
End time (UTC)
End Az.
7 mins2024-11-21 17:43:01.310Z17.568° NNE2024-11-21 17:47:01.310Z142.989° SSE41.388°2024-11-21 17:50:01.310Z184.213° SSW
4 mins2024-11-22 04:25:01.310Z108.944° ESE2024-11-22 04:26:01.310Z85.207° E24.824°2024-11-22 04:29:01.310Z18.182° NNE
|